• In Hungary
  • List of Countries
  • For 7 days
  • Water Temperature
  • Satellite Maps
  • Weather Map
  • News
  • Weather Widgets
  • user-avatar
    Login

    Hourly Weather New York

    Today, 22 February, Thursday

    Time Temperature Precipitation Wind Pressure Humidity
    00:00 +13°C° 0 mm 5 mps 772 mmHg 63%
    01:00 +12°C° 0 mm 5 mps 773 mmHg 59%
    02:00 +10°C° 0 mm 5 mps 773 mmHg 59%
    03:00 +9°C° 0 mm 5 mps 774 mmHg 59%
    04:00 +8°C° 0 mm 5 mps 774 mmHg 58%
    05:00 +8°C° 0 mm 5 mps 775 mmHg 56%
    06:00 +8°C° 0 mm 5 mps 775 mmHg 54%
    07:00 +7°C° 0 mm 4 mps 775 mmHg 52%
    08:00 +7°C° 0.3 mm 4 mps 776 mmHg 56%
    09:00 +6°C° 0.3 mm 4 mps 776 mmHg 60%
    10:00 +6°C° 0.3 mm 4 mps 776 mmHg 64%
    11:00 +6°C° 0.3 mm 5 mps 776 mmHg 66%
    12:00 +5°C° 0.3 mm 5 mps 776 mmHg 67%
    13:00 +5°C° 0.3 mm 5 mps 776 mmHg 68%
    14:00 +3°C° 1.4 mm 5 mps 776 mmHg 72%
    15:00 +3°C° 1.4 mm 5 mps 776 mmHg 76%
    16:00 +2°C° 1.4 mm 5 mps 777 mmHg 80%
    17:00 +2°C° 0.5 mm 5 mps 776 mmHg 80%
    18:00 +2°C° 0.5 mm 5 mps 776 mmHg 81%
    19:00 +3°C° 0.5 mm 4 mps 776 mmHg 81%
    20:00 +3°C° 0 mm 4 mps 777 mmHg 82%
    21:00 +3°C° 0 mm 4 mps 777 mmHg 82%
    22:00 +3°C° 0 mm 4 mps 777 mmHg 82%
    23:00 +3°C° 0.1 mm 4 mps 777 mmHg 83%

    Tomorrow, 23 February, Friday

    Time Temperature Precipitation Wind Pressure Humidity
    00:00 +3°C° 0.1 mm 4 mps 777 mmHg 83%
    01:00 +3°C° 0.1 mm 4 mps 777 mmHg 83%
    02:00 +1°C° 0 mm 4 mps 777 mmHg 83%
    03:00 +1°C° 0 mm 4 mps 777 mmHg 82%
    04:00 +1°C° 0 mm 4 mps 777 mmHg 82%
    05:00 +1°C° 0 mm 4 mps 777 mmHg 82%
    06:00 +1°C° 0 mm 5 mps 776 mmHg 82%
    07:00 +1°C° 0 mm 5 mps 776 mmHg 82%
    08:00 +1°C° 0 mm 5 mps 776 mmHg 81%
    09:00 +2°C° 0 mm 5 mps 776 mmHg 80%
    10:00 +2°C° 0 mm 5 mps 776 mmHg 79%
    11:00 +3°C° 0.1 mm 5 mps 775 mmHg 79%
    12:00 +3°C° 0.1 mm 5 mps 774 mmHg 78%
    13:00 +3°C° 0.1 mm 5 mps 773 mmHg 78%
    14:00 +4°C° 1 mm 4 mps 772 mmHg 82%
    15:00 +4°C° 1 mm 4 mps 771 mmHg 86%
    16:00 +4°C° 1 mm 3 mps 770 mmHg 90%
    17:00 +5°C° 0.7 mm 2 mps 770 mmHg 90%
    18:00 +5°C° 0.7 mm 2 mps 769 mmHg 91%
    19:00 +5°C° 0.7 mm 2 mps 769 mmHg 91%
    20:00 +5°C° 0.1 mm 2 mps 768 mmHg 92%
    21:00 +6°C° 0.1 mm 2 mps 767 mmHg 93%
    22:00 +6°C° 0.1 mm 2 mps 766 mmHg 93%
    23:00 +6°C° 0 mm 2 mps 766 mmHg 94%

    Day after tomorrow, 24 February, Saturday

    Time Temperature Precipitation Wind Pressure Humidity
    00:00 +7°C° 0 mm 2 mps 765 mmHg 95%
    01:00 +8°C° 0 mm 3 mps 764 mmHg 96%
    02:00 +8°C° 0.1 mm 3 mps 764 mmHg 96%
    03:00 +8°C° 0.1 mm 3 mps 764 mmHg 96%
    04:00 +8°C° 0.1 mm 3 mps 764 mmHg 96%
    05:00 +8°C° 0 mm 3 mps 764 mmHg 96%
    06:00 +8°C° 0 mm 2 mps 764 mmHg 95%
    07:00 +8°C° 0 mm 2 mps 764 mmHg 94%
    08:00 +9°C° 0 mm 2 mps 765 mmHg 89%
    09:00 +10°C° 0 mm 2 mps 765 mmHg 83%
    10:00 +12°C° 0 mm 2 mps 765 mmHg 77%
    11:00 +12°C° 0 mm 2 mps 765 mmHg 74%
    12:00 +12°C° 0 mm 2 mps 765 mmHg 72%
    13:00 +13°C° 0 mm 2 mps 765 mmHg 70%
    14:00 +13°C° 0.1 mm 1 mps 764 mmHg 71%
    15:00 +13°C° 0.1 mm 1 mps 764 mmHg 72%
    16:00 +13°C° 0.1 mm 1 mps 764 mmHg 73%
    17:00 +12°C° 0.6 mm 1 mps 764 mmHg 77%
    18:00 +11°C° 0.6 mm 1 mps 765 mmHg 81%
    19:00 +11°C° 0.6 mm 1 mps 765 mmHg 85%
    20:00 +10°C° 1.3 mm 2 mps 765 mmHg 87%
    21:00 +9°C° 1.3 mm 3 mps 765 mmHg 89%
    22:00 +8°C° 1.3 mm 4 mps 765 mmHg 91%
    23:00 +8°C° 3.2 mm 4 mps 764 mmHg 91%

    25 February, Sunday

    Time Temperature Precipitation Wind Pressure Humidity
    00:00 +7°C° 3.2 mm 4 mps 764 mmHg 91%
    01:00 +7°C° 3.2 mm 4 mps 764 mmHg 90%
    02:00 +7°C° 0.5 mm 5 mps 763 mmHg 89%
    03:00 +7°C° 0.5 mm 6 mps 763 mmHg 88%
    04:00 +5°C° 0.5 mm 7 mps 762 mmHg 87%
    05:00 +6°C° 0.6 mm 7 mps 762 mmHg 88%
    06:00 +6°C° 0.6 mm 7 mps 762 mmHg 89%
    07:00 +6°C° 0.6 mm 7 mps 761 mmHg 90%
    08:00 +6°C° 2.6 mm 7 mps 761 mmHg 91%
    09:00 +7°C° 2.6 mm 6 mps 760 mmHg 91%
    10:00 +7°C° 2.6 mm 6 mps 760 mmHg 92%
    11:00 +7°C° 0.8 mm 5 mps 759 mmHg 92%
    12:00 +7°C° 0.8 mm 4 mps 758 mmHg 92%
    13:00 +8°C° 0.8 mm 3 mps 758 mmHg 93%
    14:00 +9°C° 0.2 mm 2 mps 757 mmHg 93%
    15:00 +9°C° 0.2 mm 2 mps 757 mmHg 93%
    16:00 +9°C° 0.2 mm 2 mps 756 mmHg 93%
    17:00 +9°C° 0 mm 2 mps 757 mmHg 94%
    18:00 +10°C° 0 mm 2 mps 757 mmHg 94%
    19:00 +10°C° 0 mm 2 mps 758 mmHg 94%
    20:00 +10°C° 0 mm 2 mps 758 mmHg 90%
    21:00 +10°C° 0 mm 2 mps 759 mmHg 86%
    22:00 +10°C° 0 mm 2 mps 759 mmHg 82%
    23:00 +9°C° 0 mm 3 mps 760 mmHg 80%

    26 February, Monday

    Time Temperature Precipitation Wind Pressure Humidity
    00:00 +9°C° 0 mm 3 mps 760 mmHg 78%
    01:00 +9°C° 0 mm 3 mps 761 mmHg 75%
    02:00 +8°C° 0 mm 3 mps 761 mmHg 75%
    03:00 +8°C° 0 mm 3 mps 761 mmHg 74%
    04:00 +7°C° 0 mm 3 mps 761 mmHg 73%
    05:00 +7°C° 0 mm 3 mps 762 mmHg 73%
    06:00 +5°C° 0 mm 3 mps 762 mmHg 73%
    07:00 +5°C° 0 mm 3 mps 763 mmHg 73%
    08:00 +7°C° 0 mm 3 mps 763 mmHg 64%
    09:00 +8°C° 0 mm 3 mps 763 mmHg 56%
    10:00 +9°C° 0 mm 3 mps 764 mmHg 48%
    11:00 +10°C° 0 mm 3 mps 763 mmHg 43%
    12:00 +11°C° 0 mm 3 mps 763 mmHg 38%
    13:00 +12°C° 0 mm 3 mps 763 mmHg 34%
    14:00 +12°C° 0 mm 4 mps 763 mmHg 34%
    15:00 +12°C° 0 mm 4 mps 762 mmHg 34%
    16:00 +13°C° 0 mm 5 mps 762 mmHg 35%
    17:00 +10°C° 0 mm 5 mps 763 mmHg 39%
    18:00 +10°C° 0 mm 4 mps 763 mmHg 43%
    19:00 +8°C° 0 mm 4 mps 764 mmHg 48%
    20:00 +7°C° 0 mm 5 mps 764 mmHg 50%
    21:00 +7°C° 0 mm 5 mps 765 mmHg 52%
    22:00 +5°C° 0 mm 6 mps 765 mmHg 54%
    23:00 +4°C° 0 mm 6 mps 766 mmHg 55%

    27 February, Tuesday

    Time Temperature Precipitation Wind Pressure Humidity
    00:00 +3°C° 0 mm 6 mps 766 mmHg 57%
    01:00 +1°C° 0 mm 6 mps 767 mmHg 59%
    02:00 +1°C° 0 mm 6 mps 767 mmHg 59%
    03:00 +1°C° 0 mm 6 mps 767 mmHg 59%
    04:00 0°C° 0 mm 5 mps 768 mmHg 59%
    05:00 0°C° 0 mm 5 mps 768 mmHg 59%
    06:00 0°C° 0 mm 5 mps 769 mmHg 59%
    07:00 0°C° 0 mm 4 mps 769 mmHg 59%
    08:00 +1°C° 0 mm 4 mps 769 mmHg 54%
    09:00 +3°C° 0 mm 4 mps 770 mmHg 49%
    10:00 +5°C° 0 mm 4 mps 770 mmHg 43%
    11:00 +6°C° 0 mm 4 mps 769 mmHg 40%
    12:00 +7°C° 0 mm 4 mps 769 mmHg 37%
    13:00 +8°C° 0 mm 4 mps 768 mmHg 34%
    14:00 +10°C° 0 mm 4 mps 768 mmHg 33%
    15:00 +10°C° 0 mm 4 mps 768 mmHg 33%
    16:00 +10°C° 0 mm 4 mps 768 mmHg 33%
    17:00 +8°C° 0 mm 4 mps 768 mmHg 36%
    18:00 +8°C° 0 mm 3 mps 768 mmHg 40%
    19:00 +7°C° 0 mm 3 mps 768 mmHg 44%
    20:00 +5°C° 0 mm 3 mps 768 mmHg 46%
    21:00 +5°C° 0 mm 2 mps 768 mmHg 48%
    22:00 +5°C° 0 mm 2 mps 768 mmHg 50%
    23:00 +4°C° 0 mm 2 mps 768 mmHg 51%
    Show more